1483794000.52,14270,3.69,72458.3,-19.35,-59.21,-59.37,0,*69
1483794001.75,14271,3.69,72460.5,-19.37,-58.65,-58.65,0,*6D
1483794002.97,14272,3.69,72460.8,-19.37,-58.57,-58.65,0,*6F
1483794004.21,14273,3.69,72460.0,-19.35,-58.65,-58.57,0,*6C
1483794005.43,14274,3.69,72472.5,-19.37,-58.65,-58.65,0,*68
1483794006.67,14275,3.69,72460.8,-19.37,-58.17,-58.57,0,*6D
1483794007.95,14276,3.69,72464.3,-19.37,-58.33,-58.41,0,*6F
1483794009.2,14277,3.69,72464.0,-19.37,-58.33,-58.57,0,*69
1483794010.44,14278,3.69,72470.8,-19.35,-58.65,-58.57,0,*67
1483794011.74,14279,3.69,72462.0,-19.35,-58.41,-58.41,0,*67
1483794013.01,14280,3.69,72462.3,-19.35,-58.41,-58.57,0,*66
1483794014.29,14281,3.69,72458.0,-19.35,-58.65,-58.89,0,*62
1483794015.58,14282,3.69,72460.8,-19.35,-59.05,-59.05,0,*63
1483794016.85,14283,3.69,72466.0,-19.35,-59.13,-59.47,0,*63
1483794018.13,14284,3.75,72468.0,-19.35,-58.81,-58.65,0,*6F
1483794019.42,14285,3.69,72470.8,-19.35,-58.41,-58.41,0,*64
1483794020.7,14286,3.69,72470.8,-19.35,-58.41,-58.57,0,*60
1483794021.91,14287,3.69,72466.0,-19.37,-58.57,-58.57,0,*64
1483794023.18,14288,3.69,72470.3,-19.35,-57.93,-58.17,0,*6A
1483794024.46,14289,3.69,72464.0,-19.35,-58.09,-58.41,0,*64
1483794025.73,14290,3.69,72464.8,-19.35,-58.09,-58.17,0,*6F
1483794026.99,14291,3.69,72464.5,-19.33,-58.33,-58.57,0,*65
1483794028.21,14292,3.69,72464.3,-19.33,-58.57,-58.57,0,*64
1483794029.43,14293,3.69,72464.8,-19.33,-58.57,-58.65,0,*64
1483794030.68,14294,3.69,72460.3,-19.33,-59.37,-59.47,0,*65
1483794031.94,14295,3.69,72464.3,-19.33,-58.89,-58.65,0,*61
1483794033.21,14296,3.69,72466.5,-19.31,-58.97,-59.29,0,*66
1483794034.47,14297,3.75,72466.3,-19.33,-58.65,-58.81,0,*6B
1483794035.73,14298,3.69,72466.0,-19.35,-59.21,-59.47,0,*68
1483794037.03,14299,3.69,72464.3,-19.35,-58.81,-59.05,0,*64
1483794038.25,14300,3.69,72466.5,-19.33,-59.13,-59.21,0,*6F
1483794039.53,14301,3.69,72462.3,-19.33,-59.05,-58.89,0,*6A
1483794040.8,14302,3.69,72462.0,-19.35,-58.65,-58.81,0,*60
1483794042.1,14303,3.69,72464.0,-19.35,-58.81,-58.89,0,*63
1483794043.32,14304,3.75,72462.3,-19.37,-59.13,-59.37,0,*68
1483794044.62,14305,3.69,72456.0,-19.35,-58.81,-58.81,0,*6D
1483794045.89,14306,3.69,72452.0,-19.35,-58.65,-58.81,0,*64
1483794047.16,14307,3.69,72452.8,-19.37,-58.81,-59.05,0,*60
1483794048.43,14308,3.69,72460.3,-19.35,-59.63,-59.87,0,*6A
1483794049.7,14309,3.69,72458.0,-19.37,-58.81,-58.89,0,*6B
1483794050.94,14310,3.75,72460.3,-19.37,-59.63,-59.87,0,*61
1483794052.25,14311,3.75,72460.3,-19.35,-60.37,-60.61,0,*6B
1483794053.5,14312,3.69,72454.0,-19.37,-61.27,-61.69,0,*63
1483794054.76,14313,3.69,72446.0,-19.43,-60.77,-60.69,0,*64
1483794056.01,14314,3.69,72444.0,-19.43,-59.95,-60.19,0,*62
1483794057.25,14315,3.69,72446.5,-19.43,-59.71,-60.03,0,*62
1483794058.56,14316,3.69,72444.0,-19.41,-59.71,-60.19,0,*68
1483794059.77,14317,3.69,72442.3,-19.43,-59.21,-59.13,0,*6E
1483794061.02,14318,3.69,72442.8,-19.43,-58.97,-59.13,0,*6D
1483794062.24,14319,3.69,72448.0,-19.43,-59.21,-59.29,0,*69
1483794063.52,14320,3.69,72450.0,-19.43,-58.97,-58.97,0,*6B
1483794064.8,14321,3.75,72452.5,-19.43,-58.97,-58.97,0,*6A
1483794066.09,14322,3.69,72446.0,-19.43,-58.89,-58.97,0,*66
1483794067.31,14323,3.69,72446.3,-19.43,-59.13,-59.29,0,*61
1483794068.53,14324,3.69,72448.5,-19.43,-59.13,-59.29,0,*66
1483794069.78,14325,3.69,72454.3,-19.43,-59.29,-59.55,0,*65
1483794071.01,14326,3.69,72460.3,-19.45,-59.21,-59.21,0,*6B
1483794072.28,14327,3.69,72460.0,-19.45,-59.21,-59.05,0,*6C
1483794073.55,14328,3.69,72460.0,-19.45,-59.29,-59.55,0,*6E
1483794074.79,14329,3.69,72454.0,-19.47,-59.29,-59.55,0,*6D
1483794076.04,14330,3.75,72454.0,-19.45,-59.37,-59.79,0,*66
1483794077.34,14331,3.75,72444.8,-19.45,-60.61,-60.77,0,*6A
1483794078.64,14332,3.69,72442.8,-19.45,-59.55,-59.63,0,*6B
1483794079.86,14333,3.69,72446.3,-19.47,-59.29,-59.21,0,*65
1483794081.1,14334,3.69,72440.0,-19.47,-59.63,-59.87,0,*60
1483794082.33,14335,3.69,72432.3,-19.47,-59.55,-59.79,0,*65
1483794083.6,14336,3.69,72432.3,-19.47,-58.81,-59.05,0,*65
1483794084.85,14337,3.69,72430.5,-19.47,-59.37,-59.63,0,*68
1483794086.09,14338,3.69,72436.5,-19.47,-59.63,-60.03,0,*6A
1483794087.34,14339,3.75,72444.5,-19.47,-59.87,-60.11,0,*62
1483794088.58,14340,3.69,72446.3,-19.47,-59.79,-60.11,0,*6D
1483794089.82,14341,3.75,72448.8,-19.47,-59.55,-59.79,0,*66
1483794091.1,14342,3.75,72448.8,-19.47,-58.97,-58.97,0,*6B
1483794092.31,14343,3.69,72446.3,-19.47,-59.21,-59.21,0,*6A
1483794093.59,14344,3.69,72446.5,-19.51,-59.47,-59.63,0,*6C
1483794094.83,14345,3.75,72456.3,-19.47,-59.37,-59.55,0,*68
1483794096.07,14346,3.75,72458.8,-19.51,-59.87,-60.11,0,*6D
1483794097.32,14347,3.75,72458.5,-19.47,-60.03,-60.27,0,*68
1483794098.57,14348,3.75,72456.8,-19.51,-59.29,-59.47,0,*6E
1483794099.81,14349,3.69,72448.5,-19.51,-59.63,-59.87,0,*6D
1483794101.08,14350,3.75,72454.5,-19.51,-59.47,-59.71,0,*6A
1483794102.33,14351,3.75,72448.8,-19.51,-59.37,-59.47,0,*69
1483794103.6,14352,3.69,72448.3,-19.47,-58.81,-58.97,0,*6D
1483794104.85,14353,3.69,72446.0,-19.51,-58.65,-58.81,0,*66
1483794106.09,14354,3.69,72442.3,-19.51,-58.57,-58.81,0,*60
1483794107.32,14355,3.75,72444.3,-19.51,-58.57,-58.65,0,*6B
1483794108.59,14356,3.69,72446.0,-19.47,-58.97,-59.05,0,*64
1483794109.86,14357,3.69,72440.8,-19.47,-58.81,-58.97,0,*68
1483794111.08,14358,3.69,72450.5,-19.51,-59.13,-59.13,0,*67
1483794112.33,14359,3.75,72450.8,-19.51,-59.37,-59.71,0,*64
1483794113.61,14360,3.75,72444.5,-19.51,-58.89,-58.81,0,*64
1483794114.85,14361,3.69,72446.8,-19.51,-58.41,-58.57,0,*6A
1483794116.12,14362,3.69,72450.8,-19.51,-58.17,-58.41,0,*6D
1483794117.37,14363,3.75,72458.3,-19.47,-58.49,-58.81,0,*6C
1483794118.61,14364,3.75,72454.5,-19.47,-58.57,-58.81,0,*64
1483794119.86,14365,3.69,72452.5,-19.51,-58.65,-58.89,0,*6B
1483794121.07,14366,3.75,72456.5,-19.47,-59.37,-59.21,0,*6A
1483794122.32,14367,3.69,72448.5,-19.51,-59.29,-59.05,0,*65
1483794123.59,14368,3.75,72458.3,-19.47,-59.05,-59.05,0,*63
1483794124.84,14369,3.69,72454.3,-19.51,-58.65,-58.81,0,*6F
1483794126.06,14370,3.75,72466.3,-19.51,-59.13,-59.13,0,*6D
1483794127.3,14371,3.75,72458.3,-19.47,-59.63,-60.03,0,*67
1483794128.58,14372,3.75,72466.0,-19.47,-60.11,-60.53,0,*6E
1483794129.82,14373,3.69,72468.0,-19.47,-61.27,-61.43,0,*6B
1483794131.1,14374,3.69,72464.5,-19.51,-60.61,-60.61,0,*69
1483794132.41,14375,3.75,72466.3,-19.53,-60.19,-60.19,0,*6A
1483794133.63,14376,3.75,72462.5,-19.55,-59.21,-59.13,0,*6E
1483794134.91,14377,3.75,72462.8,-19.53,-58.73,-58.89,0,*6D
1483794136.18,14378,3.69,72460.0,-19.53,-58.41,-58.49,0,*6F
1483794137.46,14379,3.69,72468.8,-19.51,-59.05,-58.89,0,*61
1483794138.68,14380,3.75,72464.8,-19.55,-59.13,-59.21,0,*67
1483794139.97,14381,3.69,72458.8,-19.53,-59.47,-59.71,0,*64
1483794141.19,14382,3.69,72450.8,-19.51,-59.13,-59.13,0,*60
1483794142.43,14383,3.69,72452.0,-19.53,-59.37,-59.21,0,*64
1483794143.71,14384,3.75,72452.0,-19.53,-58.73,-58.89,0,*61
1483794144.99,14385,3.75,72454.5,-19.55,-58.89,-58.97,0,*6C
1483794146.26,14386,3.75,72454.3,-19.53,-58.65,-58.89,0,*64
1483794147.51,14387,3.75,72456.0,-19.53,-58.49,-58.49,0,*67
1483794148.76,14388,3.69,72468.3,-19.53,-58.49,-58.49,0,*68
1483794150.05,14389,3.75,72466.0,-19.53,-59.47,-59.55,0,*6A
1483794151.33,14390,3.69,72448.5,-19.51,-59.63,-60.11,0,*6C
1483794152.61,14391,3.75,72450.0,-19.51,-59.47,-59.63,0,*64
1483794153.91,14392,3.69,72446.3,-19.53,-58.89,-58.97,0,*6C
1483794155.16,14393,3.75,72454.0,-19.53,-59.13,-59.21,0,*63
1483794156.43,14394,3.75,72458.5,-19.53,-58.97,-59.13,0,*68
1483794157.68,14395,3.69,72450.3,-19.55,-59.71,-59.95,0,*68
1483794158.97,14396,3.69,72444.8,-19.53,-59.47,-59.71,0,*62
1483794160.22,14397,3.75,72446.0,-19.55,-59.71,-60.03,0,*6F
1483794161.49,14398,3.75,72444.3,-19.55,-59.71,-60.19,0,*6B
1483794162.74,14399,3.69,72440.0,-19.55,-59.55,-59.79,0,*60
1483794163.99,14400,3.69,72432.8,-19.55,-59.71,-59.95,0,*63
1483794165.23,14401,3.75,72430.0,-19.55,-59.47,-59.37,0,*6F
1483794166.5,14402,3.75,72434.0,-19.55,-59.55,-59.55,0,*6B
1483794167.78,14403,3.69,72448.0,-19.55,-59.55,-59.71,0,*6C
1483794169.08,14404,3.75,72448.3,-19.57,-59.55,-59.63,0,*6A
1483794170.3,14405,3.69,72440.8,-19.55,-59.13,-59.21,0,*6D
1483794171.54,14406,3.75,72446.8,-19.55,-59.47,-60.03,0,*65
1483794172.78,14407,3.75,72444.8,-19.57,-59.79,-59.87,0,*6D
1483794174.05,14408,3.75,72446.8,-19.57,-58.97,-59.21,0,*6F
1483794175.32,14409,3.75,72448.3,-19.57,-59.05,-59.21,0,*64
1483794176.59,14410,3.69,72450.8,-19.57,-59.63,-59.87,0,*60
1483794177.87,14411,3.75,72450.8,-19.59,-58.81,-58.97,0,*62
1483794179.12,14412,3.75,72458.0,-19.55,-59.13,-58.97,0,*67
1483794180.42,14413,3.75,72456.0,-19.57,-59.47,-59.47,0,*69
1483794181.66,14414,3.75,72458.0,-19.59,-59.63,-59.87,0,*6A
1483794182.91,14415,3.75,72460.3,-19.57,-59.21,-59.29,0,*67
1483794184.16,14416,3.75,72462.0,-19.59,-59.29,-59.63,0,*6C
1483794185.44,14417,3.75,72462.0,-19.57,-59.29,-59.63,0,*63
1483794186.75,14418,3.75,72460.5,-19.57,-60.11,-60.61,0,*65
1483794188.01,14419,3.75,72460.5,-19.59,-60.03,-60.37,0,*6A
1483794189.23,14420,3.75,72460.8,-19.59,-59.79,-59.79,0,*67
1483794190.47,14421,3.75,72458.0,-19.59,-59.21,-59.47,0,*66
1483794191.72,14422,3.69,72458.3,-19.59,-59.79,-60.11,0,*61
1483794192.94,14423,3.75,72464.8,-19.59,-59.29,-59.29,0,*64
1483794194.17,14424,3.75,72462.5,-19.59,-59.29,-59.29,0,*63
1483794195.42,14425,3.75,72458.5,-19.59,-59.21,-59.05,0,*64
1483794196.64,14426,3.75,72462.3,-19.63,-59.13,-59.29,0,*61
1483794197.88,14427,3.75,72458.0,-19.63,-58.89,-59.13,0,*6B
1483794199.13,14428,3.75,72462.5,-19.59,-59.47,-59.79,0,*62
1483794200.35,14429,3.75,72456.5,-19.59,-59.21,-59.29,0,*66
1483794201.62,14430,3.75,72454.3,-19.59,-58.97,-59.05,0,*6C
1483794202.9,14431,3.69,72460.3,-19.59,-58.97,-59.05,0,*6D
1483794204.15,14432,3.75,72462.5,-19.59,-58.57,-58.81,0,*6F
1483794205.41,14433,3.75,72458.8,-19.59,-59.47,-59.47,0,*65
1483794206.63,14434,3.75,72458.0,-19.59,-58.57,-58.73,0,*64
1483794207.85,14435,3.75,72460.0,-19.59,-58.49,-58.73,0,*6A
1483794209.13,14436,3.75,72462.8,-19.57,-58.33,-58.73,0,*6A
1483794210.37,14437,3.75,72464.5,-19.59,-58.73,-59.05,0,*61
1483794211.65,14438,3.75,72464.8,-19.59,-59.55,-59.63,0,*6B
1483794212.92,14439,3.75,72468.3,-19.59,-59.05,-59.05,0,*6F
1483794214.14,14440,3.75,72460.0,-19.59,-58.57,-58.73,0,*67
1483794215.36,14441,3.75,72454.8,-19.59,-58.57,-58.73,0,*66
1483794216.63,14442,3.75,72462.3,-19.57,-58.73,-58.97,0,*67
1483794217.88,14443,3.75,72464.0,-19.57,-58.49,-58.73,0,*65
1483794219.13,14444,3.75,72454.5,-19.57,-58.49,-58.73,0,*62
1483794220.37,14445,3.75,72454.8,-19.57,-58.49,-58.73,0,*63
1483794221.65,14446,3.75,72456.3,-19.57,-58.33,-58.49,0,*64
1483794222.9,14447,3.75,72462.0,-19.57,-58.49,-58.73,0,*61
1483794224.18,14448,3.75,72460.3,-19.53,-58.41,-58.49,0,*6B
1483794225.43,14449,3.75,72458.0,-19.55,-58.25,-58.49,0,*6E
1483794226.71,14450,3.75,72454.5,-19.55,-57.69,-57.69,0,*6C
1483794227.99,14451,3.75,72456.0,-19.53,-58.17,-58.49,0,*60
1483794229.26,14452,3.75,72456.5,-19.55,-58.25,-58.41,0,*6C
1483794230.54,14453,3.75,72458.3,-19.53,-58.41,-58.65,0,*6F
1483794231.76,14454,3.75,72458.0,-19.55,-58.73,-59.13,0,*6F
1483794232.98,14455,3.75,72460.8,-19.55,-58.49,-58.73,0,*60
1483794234.2,14456,3.75,72454.8,-19.55,-58.65,-58.73,0,*6D
1483794235.43,14457,3.75,72458.0,-19.55,-58.49,-58.49,0,*6B
1483794236.71,14458,3.75,72460.8,-19.53,-58.41,-58.65,0,*64
1483794237.96,14459,3.75,72462.0,-19.55,-58.73,-58.97,0,*6F
1483794239.25,14460,3.75,72454.3,-19.53,-59.47,-59.55,0,*6A
1483794240.47,14461,3.75,72456.8,-19.55,-59.13,-59.13,0,*6E
1483794241.72,14462,3.75,72452.3,-19.55,-58.97,-59.13,0,*60
1483794242.95,14463,3.75,72452.0,-19.55,-58.49,-58.65,0,*62
1483794244.23,14464,3.75,72456.3,-19.53,-58.41,-58.49,0,*65
1483794245.5,14465,3.75,72448.0,-19.53,-58.25,-58.49,0,*66
1483794246.75,14466,3.75,72452.3,-19.53,-58.49,-58.65,0,*61
1483794248.05,14467,3.75,72454.3,-19.53,-58.17,-58.25,0,*6F
1483794249.33,14468,3.75,72458.0,-19.53,-58.73,-58.97,0,*6B
1483794250.58,14469,3.75,72460.8,-19.55,-58.73,-58.89,0,*63
1483794251.82,14470,3.75,72458.5,-19.53,-58.49,-58.73,0,*61
1483794253.07,14471,3.75,72462.5,-19.53,-59.21,-59.37,0,*6E
1483794254.37,14472,3.75,72456.3,-19.53,-58.89,-58.89,0,*6A
1483794255.65,14473,3.75,72452.3,-19.53,-58.65,-58.97,0,*66
1483794256.95,14474,3.75,72452.3,-19.53,-58.89,-58.97,0,*63
1483794258.2,14475,3.75,72458.5,-19.55,-58.73,-58.89,0,*6E
1483794259.51,14476,3.75,72462.8,-19.53,-58.97,-58.97,0,*6E
1483794260.76,14477,3.75,72460.3,-19.53,-58.49,-58.73,0,*66
1483794262.01,14478,3.75,72466.8,-19.55,-58.41,-58.65,0,*60
1483794263.23,14479,3.75,72460.5,-19.51,-58.57,-58.65,0,*62
1483794264.51,14480,3.75,72464.3,-19.51,-58.89,-59.05,0,*60
1483794265.78,14481,3.75,72464.0,-19.51,-58.41,-58.41,0,*64
1483794267.05,14482,3.75,72462.3,-19.51,-58.81,-58.81,0,*67
1483794268.36,14483,3.75,72456.3,-19.53,-58.89,-58.89,0,*64
1483794269.6,14484,3.75,72456.8,-19.51,-58.41,-58.57,0,*66
1483794270.86,14485,3.75,72452.0,-19.51,-58.09,-58.33,0,*69
1483794272.11,14486,3.75,72456.3,-19.51,-58.33,-58.57,0,*61
1483794273.38,14487,3.75,72456.0,-19.47,-58.17,-58.25,0,*64
1483794274.63,14488,3.75,72460.5,-19.51,-58.33,-58.65,0,*6E
1483794275.91,14489,3.75,72454.0,-19.51,-58.33,-58.41,0,*69
1483794277.16,14490,3.75,72450.0,-19.51,-58.65,-58.89,0,*66
1483794278.4,14491,3.75,72450.0,-19.47,-58.73,-58.97,0,*68
1483794279.62,14492,3.75,72452.0,-19.51,-58.57,-58.65,0,*67
1483794280.87,14493,3.75,72454.8,-19.47,-58.33,-58.57,0,*62
1483794282.12,14494,3.75,72450.8,-19.51,-58.57,-58.81,0,*6B
1483794283.34,14495,3.75,72454.0,-19.51,-59.13,-59.29,0,*68
1483794284.59,14496,3.75,72452.0,-19.47,-58.33,-58.49,0,*68
1483794285.86,14497,3.75,72448.3,-19.47,-59.05,-59.05,0,*64
1483794287.08,14498,3.75,72450.3,-19.51,-58.65,-58.65,0,*6C
1483794288.33,14499,3.75,72446.5,-19.47,-58.73,-58.81,0,*67
1483794289.6,14500,3.75,72444.5,-19.47,-59.05,-58.97,0,*61
1483794290.83,14501,3.75,72450.8,-19.51,-59.29,-59.29,0,*6D
1483794292.05,14502,3.75,72448.5,-19.47,-59.29,-59.29,0,*69
1483794293.32,14503,3.75,72446.5,-19.51,-58.89,-59.05,0,*6A
1483794294.6,14504,3.75,72442.5,-19.51,-58.81,-58.89,0,*60
1483794295.82,14505,3.75,72446.8,-19.51,-59.29,-59.29,0,*69
1483794297.04,14506,3.75,72448.5,-19.47,-58.73,-58.73,0,*6D
1483794298.28,14507,3.75,72454.8,-19.47,-58.73,-58.81,0,*61
1483794299.56,14508,3.75,72450.0,-19.51,-58.33,-58.81,0,*6D
1483794300.84,14509,3.75,72450.5,-19.51,-58.89,-58.89,0,*65
1483794302.08,14510,3.75,72454.0,-19.51,-58.57,-58.81,0,*66
1483794303.33,14511,3.75,72452.5,-19.47,-58.33,-58.57,0,*69
1483794304.61,14512,3.75,72452.0,-19.51,-59.71,-60.11,0,*63
1483794305.86,14513,3.75,72456.0,-19.47,-59.79,-60.27,0,*68
1483794307.13,14514,3.75,72454.5,-19.47,-58.97,-59.05,0,*64
1483794308.4,14515,3.75,72458.5,-19.51,-58.89,-59.05,0,*6D
1483794309.7,14516,3.75,72452.3,-19.53,-59.55,-59.55,0,*69
1483794310.97,14517,3.75,72456.3,-19.53,-59.37,-59.71,0,*6A
1483794312.22,14518,3.75,72458.3,-19.53,-58.73,-58.65,0,*60
1483794313.44,14519,3.75,72454.8,-19.51,-58.57,-58.57,0,*64
1483794314.66,14520,3.75,72458.0,-19.51,-58.57,-58.65,0,*6F
1483794315.91,14521,3.75,72462.8,-19.51,-58.65,-58.81,0,*65
1483794317.18,14522,3.75,72462.0,-19.51,-58.33,-58.41,0,*69
1483794318.46,14523,3.75,72458.0,-19.47,-58.25,-58.33,0,*6D
1483794319.7,14524,3.75,72462.3,-19.47,-58.09,-58.25,0,*63
1483794320.95,14525,3.75,72456.0,-19.47,-58.33,-58.57,0,*6E
1483794322.17,14526,3.75,72452.0,-19.51,-57.93,-58.09,0,*64
1483794323.42,14527,3.75,72458.0,-19.51,-58.09,-58.17,0,*66
1483794324.67,14528,3.75,72460.0,-19.47,-58.25,-58.49,0,*6B
1483794325.94,14529,3.75,72456.3,-19.47,-58.25,-58.25,0,*60
1483794327.16,14530,3.75,72458.3,-19.47,-58.01,-58.01,0,*68
1483794328.44,14531,3.75,72462.5,-19.47,-58.25,-58.33,0,*6E
1483794329.71,14532,3.75,72456.8,-19.45,-58.25,-58.49,0,*62
1483794330.96,14533,3.75,72466.0,-19.47,-58.33,-58.57,0,*69
1483794332.23,14534,3.75,72460.8,-19.45,-58.25,-58.49,0,*64
1483794333.48,14535,3.75,72464.0,-19.47,-58.33,-58.49,0,*60
1483794334.78,14536,3.75,72458.8,-19.45,-58.25,-58.33,0,*6B
1483794336.06,14537,3.75,72462.5,-19.47,-58.33,-58.33,0,*6F
1483794337.34,14538,3.75,72460.5,-19.45,-58.33,-58.49,0,*6F
1483794338.59,14539,3.75,72460.3,-19.45,-58.49,-58.49,0,*63
1483794339.83,14540,3.75,72462.8,-19.47,-58.25,-58.49,0,*65
1483794341.11,14541,3.75,72464.3,-19.45,-58.33,-58.49,0,*61
1483794342.36,14542,3.75,72456.0,-19.45,-58.09,-58.49,0,*6B
1483794343.6,14543,3.75,72458.0,-19.45,-58.49,-58.57,0,*61
1483794344.82,14544,3.75,72460.5,-19.47,-59.29,-59.21,0,*63
1483794346.07,14545,3.75,72460.5,-19.47,-58.33,-58.57,0,*68
1483794347.36,14546,3.75,72464.5,-19.45,-59.05,-59.05,0,*6B
1483794348.6,14547,3.75,72456.0,-19.45,-58.57,-58.73,0,*6C
1483794349.85,14548,3.75,72450.8,-19.45,-58.57,-58.49,0,*6A
1483794351.15,14549,3.75,72454.5,-19.45,-58.81,-58.97,0,*63
1483794352.36,14550,3.75,72458.8,-19.47,-59.21,-59.21,0,*6E
1483794353.66,14551,3.75,72462.0,-19.45,-58.97,-59.05,0,*67
1483794354.91,14552,3.75,72466.8,-19.47,-59.29,-59.63,0,*62
1483794356.18,14553,3.75,72460.0,-19.47,-58.97,-59.05,0,*67
1483794357.39,14554,3.75,72456.3,-19.47,-59.37,-59.79,0,*60
1483794358.69,14555,3.75,72456.3,-19.45,-58.81,-58.97,0,*6E
1483794359.96,14556,3.75,72462.5,-19.47,-58.97,-59.05,0,*62
1483794361.18,14557,3.75,72458.8,-19.47,-59.21,-59.37,0,*6E
1483794362.4,14558,3.75,72458.5,-19.47,-59.37,-59.79,0,*6C
1483794363.61,14559,3.75,72458.5,-19.47,-59.29,-59.21,0,*6F
1483794364.85,14560,3.75,72464.8,-19.47,-59.21,-59.05,0,*6B
1483794366.09,14561,3.75,72460.0,-19.47,-59.55,-59.87,0,*63
1483794367.33,14562,3.75,72454.5,-19.47,-59.05,-59.21,0,*69
1483794368.6,14563,3.75,72456.8,-19.47,-59.05,-59.05,0,*6E
1483794369.84,14564,3.75,72456.3,-19.51,-59.29,-59.47,0,*66
1483794371.07,14565,3.75,72456.8,-19.51,-59.37,-59.29,0,*60
1483794372.28,14566,3.75,72454.3,-19.47,-59.79,-59.87,0,*6A
1483794373.55,14567,3.75,72456.0,-19.51,-59.47,-59.63,0,*6B
1483794374.83,14568,3.75,72450.3,-19.51,-59.47,-59.63,0,*64
1483794376.05,14569,3.75,72452.8,-19.51,-59.13,-59.13,0,*63
1483794377.32,14570,3.75,72458.8,-19.47,-58.81,-58.97,0,*6B
1483794378.57,14571,3.75,72458.8,-19.47,-58.41,-58.49,0,*65
1483794379.84,14572,3.75,72456.8,-19.51,-58.81,-58.89,0,*61
1483794381.11,14573,3.75,72454.8,-19.47,-59.05,-59.05,0,*6F
1483794382.39,14574,3.75,72460.0,-19.51,-58.89,-58.89,0,*6F
1483794383.66,14575,3.75,72456.5,-19.51,-59.05,-58.89,0,*6B
1483794384.94,14576,3.75,72458.5,-19.47,-58.97,-58.97,0,*6A
1483794386.21,14577,3.75,72458.8,-19.51,-58.81,-59.05,0,*61
1483794387.46,14578,3.75,72456.3,-19.51,-58.33,-58.65,0,*60
1483794388.74,14579,3.75,72462.3,-19.47,-58.33,-58.81,0,*6C
1483794389.98,14580,3.75,72462.3,-19.47,-59.29,-59.47,0,*6B
1483794391.25,14581,3.75,72458.0,-19.51,-58.81,-58.89,0,*6D
1483794392.5,14582,3.75,72458.0,-19.51,-58.41,-58.57,0,*61
1483794393.75,14583,3.75,72454.8,-19.51,-58.41,-58.65,0,*61
1483794395.03,14584,3.75,72448.8,-19.51,-58.81,-59.05,0,*6D
1483794396.26,14585,3.75,72458.0,-19.47,-59.05,-59.21,0,*60
1483794397.54,14586,3.75,72456.0,-19.51,-58.89,-59.05,0,*67
1483794398.81,14587,3.75,72454.8,-19.47,-58.81,-58.81,0,*64
1483794400.08,14588,3.75,72460.3,-19.47,-58.81,-58.81,0,*6B
1483794401.29,14589,3.75,72456.3,-19.47,-58.57,-58.73,0,*6C
1483794402.54,14590,3.75,72458.3,-19.51,-59.29,-59.47,0,*6D
1483794403.78,14591,3.75,72460.5,-19.47,-59.21,-59.05,0,*65
1483794405.01,14592,3.75,72452.8,-19.51,-59.29,-59.29,0,*67
1483794406.22,14593,3.75,72460.3,-19.47,-58.73,-58.73,0,*61
1483794407.47,14594,3.75,72460.3,-19.51,-58.65,-58.81,0,*6B
1483794408.74,14595,3.75,72458.3,-19.47,-58.81,-58.81,0,*67
1483794410.01,14596,3.75,72460.8,-19.47,-58.81,-58.81,0,*64
1483794411.23,14597,3.75,72456.8,-19.47,-58.49,-58.73,0,*6C
1483794412.47,14598,3.75,72462.0,-19.51,-58.57,-58.81,0,*66
1483794413.75,14599,3.75,72460.0,-19.51,-58.81,-58.89,0,*64
1483794415.02,14600,3.75,72466.5,-19.51,-58.81,-58.81,0,*6F
1483794416.27,14601,3.75,72462.0,-19.51,-59.29,-59.47,0,*66
1483794417.49,14602,3.75,72464.5,-19.51,-58.57,-58.73,0,*6B
1483794418.71,14603,3.75,72460.0,-19.51,-58.49,-58.73,0,*65
1483794419.92,14604,3.75,72458.8,-19.47,-58.57,-58.73,0,*6A
1483794421.17,14605,3.75,72462.3,-19.47,-58.25,-58.49,0,*67
1483794422.44,14606,3.75,72456.0,-19.51,-58.81,-58.81,0,*69
1483794423.68,14607,3.75,72456.5,-19.47,-58.73,-58.81,0,*62
1483794424.96,14608,3.75,72456.8,-19.47,-58.97,-59.05,0,*6A
1483794426.17,14609,3.75,72458.3,-19.51,-59.29,-59.21,0,*6E
1483794427.42,14610,3.75,72456.5,-19.51,-58.65,-58.81,0,*64
1483794428.67,14611,3.75,72458.8,-19.51,-58.65,-58.81,0,*65
1483794429.94,14612,3.75,72452.5,-19.51,-58.81,-58.89,0,*64
1483794431.16,14613,3.75,72462.3,-19.47,-58.57,-58.73,0,*6C
1483794432.37,14614,3.75,72458.0,-19.47,-58.57,-58.57,0,*6D
1483794433.62,14615,3.75,72460.8,-19.47,-58.33,-58.57,0,*6E
1483794434.83,14616,3.75,72452.3,-19.47,-59.21,-59.21,0,*6F
1483794436.06,14617,3.75,72454.3,-19.47,-59.29,-59.29,0,*6E
1483794437.3,14618,3.75,72454.0,-19.47,-58.89,-58.73,0,*64
1483794438.58,14619,3.75,72464.0,-19.51,-58.89,-58.89,0,*67
1483794439.85,14620,3.75,72462.8,-19.47,-58.97,-59.05,0,*60
1483794441.07,14621,3.75,72466.8,-19.51,-58.65,-58.65,0,*6C
1483794442.32,14622,3.75,72460.8,-19.51,-58.25,-58.57,0,*6A
1483794443.57,14623,3.75,72460.8,-19.51,-58.65,-58.81,0,*64
1483794444.82,14624,3.75,72456.5,-19.47,-58.33,-58.49,0,*63
1483794446.07,14625,3.75,72456.8,-19.47,-58.09,-58.33,0,*66
1483794447.29,14626,3.75,72452.5,-19.47,-58.49,-58.49,0,*6C
1483794448.56,14627,3.75,72456.8,-19.47,-58.97,-58.97,0,*6D
1483794449.84,14628,3.75,72452.8,-19.47,-58.97,-59.05,0,*68
1483794451.09,14629,3.75,72458.5,-19.47,-58.33,-58.49,0,*6E
1483794452.31,14630,3.75,72456.3,-19.51,-59.29,-59.29,0,*6C
1483794453.53,14631,3.75,72452.3,-19.47,-59.21,-59.37,0,*6D
1483794454.77,14632,3.75,72458.3,-19.47,-59.05,-59.21,0,*6F
1483794456.01,14633,3.75,72448.5,-19.51,-59.37,-59.55,0,*6B
1483794457.28,14634,3.75,72458.3,-19.47,-58.81,-58.81,0,*6F
1483794458.55,14635,3.75,72448.3,-19.47,-59.55,-59.63,0,*6B
1483794459.8,14636,3.75,72454.3,-19.51,-59.63,-59.95,0,*63
1483794461.07,14637,3.75,72452.5,-19.51,-59.05,-59.05,0,*6B
1483794462.32,14638,3.75,72452.8,-19.47,-58.73,-58.97,0,*69
1483794463.6,14639,3.75,72460.0,-19.51,-58.81,-58.81,0,*65
1483794464.84,14640,3.75,72466.5,-19.47,-58.73,-58.81,0,*61
1483794466.06,14641,3.75,72462.3,-19.51,-59.13,-59.29,0,*63
1483794467.3,14642,3.75,72452.8,-19.51,-59.13,-59.47,0,*68
1483794468.55,14643,3.75,72448.3,-19.53,-59.13,-59.13,0,*6A
1483794469.8,14644,3.75,72458.0,-19.53,-59.13,-59.13,0,*6D
1483794471.04,14645,3.75,72452.3,-19.53,-59.37,-59.21,0,*6B
1483794472.32,14646,3.75,72452.0,-19.53,-58.65,-58.89,0,*6D
1483794473.57,14647,3.75,72448.3,-19.51,-58.41,-58.65,0,*6A
1483794474.84,14648,3.75,72450.5,-19.51,-58.41,-58.41,0,*63
1483794476.12,14649,3.75,72458.0,-19.51,-58.33,-58.41,0,*67
1483794477.34,14650,3.75,72454.8,-19.51,-59.13,-59.13,0,*6A
1483794478.55,14651,3.75,72458.5,-19.47,-58.57,-58.73,0,*6A
1483794479.8,14652,3.75,72456.3,-19.51,-58.57,-58.81,0,*63
1483794481.05,14653,3.75,72456.8,-19.51,-59.05,-59.13,0,*6E
1483794482.29,14654,3.75,72456.0,-19.47,-58.73,-58.81,0,*64
1483794483.54,14655,3.81,72456.0,-19.51,-59.37,-59.47,0,*68
1483794484.83,14656,3.75,72460.8,-19.53,-59.47,-59.55,0,*6D
1483794486.14,14657,3.75,72454.5,-19.53,-58.89,-58.97,0,*60
1483794487.38,14658,3.75,72448.3,-19.53,-59.21,-59.37,0,*67
1483794488.63,14659,3.75,72452.8,-19.53,-59.79,-59.95,0,*63
1483794489.85,14660,3.75,72460.5,-19.55,-59.21,-59.37,0,*6A
1483794491.13,14661,3.75,72450.0,-19.53,-60.03,-60.27,0,*6C
1483794492.44,14662,3.75,72464.0,-19.53,-60.27,-60.53,0,*6A
1483794493.69,14663,3.75,72460.3,-19.55,-59.79,-60.19,0,*62
1483794494.96,14664,3.75,72458.0,-19.55,-60.77,-61.03,0,*6B
1483794496.24,14665,3.75,72452.8,-19.59,-60.85,-61.19,0,*60
1483794497.45,14666,3.75,72452.3,-19.59,-59.79,-60.03,0,*60
1483794498.7,14667,3.81,72458.5,-19.59,-59.63,-59.79,0,*6D
1483794499.98,14668,3.75,72460.0,-19.59,-59.55,-59.63,0,*6C
1483794501.22,14669,3.75,72454.5,-19.59,-59.55,-59.87,0,*67